EN

Hourly Weather Zhdanovka

Today, 29 September, Tuesday

Time Temperature Precipitation Wind Pressure Humidity
00:00 +13°C° 0 mm 2 mps 769 mmHg 42%
01:00 +13°C° 0 mm 2 mps 769 mmHg 43%
02:00 +12°C° 0 mm 2 mps 769 mmHg 45%
03:00 +12°C° 0 mm 2 mps 769 mmHg 47%
04:00 +12°C° 0 mm 2 mps 769 mmHg 49%
05:00 +12°C° 0 mm 2 mps 770 mmHg 50%
06:00 +10°C° 0 mm 2 mps 770 mmHg 51%
07:00 +13°C° 0 mm 2 mps 770 mmHg 48%
08:00 +14°C° 0 mm 3 mps 769 mmHg 45%
09:00 +18°C° 0 mm 3 mps 769 mmHg 40%
10:00 +19°C° 0 mm 3 mps 769 mmHg 39%
11:00 +20°C° 0 mm 4 mps 769 mmHg 39%
12:00 +21°C° 0 mm 5 mps 768 mmHg 38%
13:00 +22°C° 0 mm 4 mps 768 mmHg 36%
14:00 +22°C° 0 mm 4 mps 768 mmHg 35%
15:00 +22°C° 0 mm 4 mps 767 mmHg 33%
16:00 +20°C° 0 mm 4 mps 767 mmHg 36%
17:00 +19°C° 0 mm 3 mps 767 mmHg 39%
18:00 +17°C° 0 mm 3 mps 766 mmHg 42%
19:00 +17°C° 0 mm 3 mps 766 mmHg 43%
20:00 +16°C° 0 mm 3 mps 766 mmHg 45%
21:00 +14°C° 0 mm 4 mps 766 mmHg 46%
22:00 +14°C° 0 mm 3 mps 766 mmHg 47%
23:00 +13°C° 0 mm 3 mps 766 mmHg 48%

Tomorrow, 30 September, Wednesday

Time Temperature Precipitation Wind Pressure Humidity
00:00 +13°C° 0 mm 3 mps 765 mmHg 49%
01:00 +12°C° 0 mm 3 mps 765 mmHg 51%
02:00 +12°C° 0 mm 3 mps 765 mmHg 52%
03:00 +11°C° 0 mm 3 mps 765 mmHg 54%
04:00 +11°C° 0 mm 3 mps 765 mmHg 55%
05:00 +11°C° 0 mm 3 mps 765 mmHg 56%
06:00 +10°C° 0 mm 3 mps 765 mmHg 57%
07:00 +12°C° 0 mm 3 mps 765 mmHg 53%
08:00 +14°C° 0 mm 4 mps 765 mmHg 49%
09:00 +17°C° 0 mm 4 mps 765 mmHg 45%
10:00 +19°C° 0 mm 4 mps 765 mmHg 41%
11:00 +20°C° 0 mm 5 mps 765 mmHg 36%
12:00 +22°C° 0 mm 5 mps 765 mmHg 31%
13:00 +22°C° 0 mm 6 mps 764 mmHg 30%
14:00 +22°C° 0 mm 6 mps 764 mmHg 29%
15:00 +23°C° 0 mm 6 mps 764 mmHg 27%
16:00 +21°C° 0 mm 5 mps 764 mmHg 31%
17:00 +20°C° 0 mm 5 mps 764 mmHg 35%
18:00 +18°C° 0 mm 4 mps 764 mmHg 38%
19:00 +17°C° 0 mm 4 mps 764 mmHg 40%
20:00 +17°C° 0 mm 4 mps 764 mmHg 42%
21:00 +15°C° 0 mm 4 mps 765 mmHg 44%
22:00 +14°C° 0 mm 4 mps 765 mmHg 44%
23:00 +14°C° 0 mm 4 mps 765 mmHg 44%

Day after tomorrow, 1 October, Thursday

Time Temperature Precipitation Wind Pressure Humidity
00:00 +13°C° 0 mm 3 mps 765 mmHg 44%
01:00 +13°C° 0 mm 3 mps 765 mmHg 45%
02:00 +12°C° 0 mm 3 mps 765 mmHg 46%
03:00 +12°C° 0 mm 4 mps 766 mmHg 47%
04:00 +11°C° 0 mm 4 mps 766 mmHg 47%
05:00 +11°C° 0 mm 4 mps 766 mmHg 47%
06:00 +11°C° 0 mm 4 mps 766 mmHg 47%
07:00 +13°C° 0 mm 4 mps 766 mmHg 44%
08:00 +15°C° 0 mm 4 mps 766 mmHg 40%
09:00 +17°C° 0 mm 5 mps 766 mmHg 36%
10:00 +19°C° 0 mm 5 mps 766 mmHg 33%
11:00 +21°C° 0 mm 6 mps 766 mmHg 30%
12:00 +22°C° 0 mm 6 mps 766 mmHg 28%
13:00 +22°C° 0 mm 6 mps 765 mmHg 29%
14:00 +22°C° 0 mm 6 mps 765 mmHg 31%
15:00 +22°C° 0 mm 6 mps 765 mmHg 33%
16:00 +21°C° 0 mm 5 mps 765 mmHg 39%
17:00 +19°C° 0 mm 4 mps 765 mmHg 45%
18:00 +17°C° 0 mm 4 mps 765 mmHg 51%
19:00 +17°C° 0 mm 4 mps 765 mmHg 54%
20:00 +15°C° 0 mm 4 mps 765 mmHg 57%
21:00 +14°C° 0 mm 4 mps 765 mmHg 60%
22:00 +14°C° 0 mm 4 mps 765 mmHg 62%
23:00 +13°C° 0 mm 4 mps 765 mmHg 64%

2 October, Friday

Time Temperature Precipitation Wind Pressure Humidity
00:00 +13°C° 0 mm 3 mps 765 mmHg 66%
01:00 +12°C° 0 mm 3 mps 765 mmHg 67%
02:00 +12°C° 0 mm 3 mps 765 mmHg 68%
03:00 +11°C° 0 mm 3 mps 765 mmHg 69%
04:00 +11°C° 0 mm 3 mps 765 mmHg 69%
05:00 +11°C° 0 mm 4 mps 765 mmHg 69%
06:00 +10°C° 0 mm 4 mps 765 mmHg 69%
07:00 +12°C° 0 mm 4 mps 765 mmHg 61%
08:00 +14°C° 0 mm 5 mps 765 mmHg 53%
09:00 +16°C° 0 mm 5 mps 765 mmHg 45%
10:00 +17°C° 0 mm 5 mps 765 mmHg 41%
11:00 +20°C° 0 mm 5 mps 765 mmHg 37%
12:00 +21°C° 0 mm 5 mps 765 mmHg 33%
13:00 +21°C° 0 mm 5 mps 765 mmHg 34%
14:00 +21°C° 0 mm 5 mps 765 mmHg 34%
15:00 +21°C° 0 mm 5 mps 764 mmHg 34%
16:00 +20°C° 0 mm 4 mps 764 mmHg 38%
17:00 +18°C° 0 mm 4 mps 764 mmHg 41%
18:00 +17°C° 0 mm 3 mps 764 mmHg 45%
19:00 +16°C° 0 mm 3 mps 765 mmHg 44%
20:00 +14°C° 0 mm 3 mps 765 mmHg 43%
21:00 +13°C° 0 mm 3 mps 765 mmHg 42%
22:00 +13°C° 0 mm 3 mps 765 mmHg 43%
23:00 +12°C° 0 mm 3 mps 765 mmHg 44%

3 October, Saturday

Time Temperature Precipitation Wind Pressure Humidity
00:00 +12°C° 0 mm 3 mps 765 mmHg 45%
01:00 +12°C° 0 mm 3 mps 765 mmHg 47%
02:00 +11°C° 0 mm 3 mps 765 mmHg 48%
03:00 +11°C° 0 mm 3 mps 765 mmHg 49%
04:00 +10°C° 0 mm 3 mps 765 mmHg 50%
05:00 +10°C° 0 mm 3 mps 765 mmHg 51%
06:00 +10°C° 0 mm 3 mps 765 mmHg 52%
07:00 +11°C° 0 mm 3 mps 765 mmHg 48%
08:00 +13°C° 0 mm 3 mps 765 mmHg 43%
09:00 +16°C° 0 mm 3 mps 765 mmHg 38%
10:00 +17°C° 0 mm 3 mps 765 mmHg 35%
11:00 +19°C° 0 mm 3 mps 765 mmHg 31%
12:00 +20°C° 0 mm 4 mps 765 mmHg 28%
13:00 +20°C° 0 mm 3 mps 765 mmHg 27%
14:00 +21°C° 0 mm 3 mps 765 mmHg 27%
15:00 +21°C° 0 mm 3 mps 765 mmHg 26%
16:00 +19°C° 0 mm 3 mps 764 mmHg 29%
17:00 +18°C° 0 mm 2 mps 764 mmHg 32%
18:00 +16°C° 0 mm 2 mps 764 mmHg 35%
19:00 +16°C° 0 mm 2 mps 764 mmHg 36%
20:00 +15°C° 0 mm 2 mps 765 mmHg 37%
21:00 +14°C° 0 mm 2 mps 765 mmHg 39%
22:00 +14°C° 0 mm 2 mps 765 mmHg 39%
23:00 +14°C° 0 mm 2 mps 765 mmHg 40%

4 October, Sunday

Time Temperature Precipitation Wind Pressure Humidity
00:00 +14°C° 0 mm 2 mps 765 mmHg 41%
01:00 +14°C° 0 mm 2 mps 765 mmHg 41%
02:00 +14°C° 0 mm 2 mps 765 mmHg 42%
03:00 +13°C° 0 mm 2 mps 765 mmHg 42%
04:00 +13°C° 0 mm 2 mps 765 mmHg 44%
05:00 +13°C° 0 mm 2 mps 765 mmHg 45%
06:00 +13°C° 0 mm 2 mps 765 mmHg 47%
07:00 +14°C° 0 mm 2 mps 765 mmHg 44%
08:00 +14°C° 0 mm 3 mps 765 mmHg 42%
09:00 +16°C° 0 mm 3 mps 765 mmHg 40%
10:00 +17°C° 0 mm 3 mps 765 mmHg 37%
11:00 +18°C° 0 mm 3 mps 765 mmHg 34%
12:00 +19°C° 0 mm 3 mps 765 mmHg 31%
13:00 +20°C° 0 mm 3 mps 765 mmHg 31%
14:00 +20°C° 0 mm 3 mps 765 mmHg 31%
15:00 +20°C° 0 mm 3 mps 764 mmHg 30%
16:00 +19°C° 0 mm 3 mps 764 mmHg 35%
17:00 +17°C° 0 mm 2 mps 764 mmHg 39%
18:00 +16°C° 0 mm 2 mps 764 mmHg 44%
19:00 +16°C° 0 mm 2 mps 764 mmHg 46%
20:00 +16°C° 0 mm 2 mps 764 mmHg 49%
21:00 +15°C° 0 mm 2 mps 765 mmHg 52%
22:00 +14°C° 0 mm 3 mps 765 mmHg 53%
23:00 +14°C° 0 mm 3 mps 765 mmHg 55%
Show more

We Need Your Consent

Meteoprog and our Service Providers may store and access personal data such as cookies, device identifiers or other similar technologies on your device and process such data to personalise content and ads, as well as provide social media features and to analyse the traffic.

  • Store and/or access information on your device

    Cookies, device identifiers or other information can be stored or accessed on your device for the purposes indicated above.

  • Personalised ads and content, ad and content measurement, audience insights, and products development

    Ads and content can be personalised based on a profile. More data can be added to better personalise ads and content. Ad and content performance can be measured. Insights about the audience who saw the ads and content can be derived. Such data can be used to develop or improve user’s experience, systems and software.

By clicking ‘I Agree’ you will allow the use of indicated cookies, device identifiers, web beacons or other similar technologies. Your settings can be changed in the browser on your device.

For certain purposes, legitimate interests may be relied on, rather than consent. You can read more about this in our Privacy and Cookie Policy.